Time,TemperatureF,DewpointF,PressureIn,WindDirection,WindDirectionDegrees,WindSpeedMPH,WindSpeedGustMPH,Humidity,HourlyPrecipIn,Conditions,Clouds,dailyrainin,SoftwareType,DateUTC
2013-04-04 00:00:00,41.1,23.9,30.26,NE,45,3.0,5.0,50,0.00,,,0.00,VWS V14.00,2013-04-04 05:00:00,
2013-04-04 00:05:00,41.1,24.4,30.26,NE,45,3.0,5.0,51,0.00,,,0.00,VWS V14.00,2013-04-04 05:05:00,
2013-04-04 00:10:00,41.1,24.8,30.26,NNE,22,3.0,6.0,52,0.00,,,0.00,VWS V14.00,2013-04-04 05:10:00,
2013-04-04 00:15:00,41.1,25.3,30.26,NNE,22,3.0,5.0,53,0.00,,,0.00,VWS V14.00,2013-04-04 05:15:00,
2013-04-04 00:20:00,41.0,24.3,30.25,NNE,22,3.0,7.0,51,0.00,,,0.00,VWS V14.00,2013-04-04 05:20:00,
2013-04-04 00:25:00,41.0,25.2,30.25,NNE,22,3.0,7.0,53,0.00,,,0.00,VWS V14.00,2013-04-04 05:25:00,
2013-04-04 00:30:00,40.9,25.1,30.25,NNE,22,3.0,7.0,53,0.00,,,0.00,VWS V14.00,2013-04-04 05:30:00,
2013-04-04 00:35:00,40.9,24.6,30.25,NE,45,3.0,5.0,52,0.00,,,0.00,VWS V14.00,2013-04-04 05:35:00,
2013-04-04 00:40:00,40.8,24.5,30.25,NE,45,3.0,5.0,52,0.00,,,0.00,VWS V14.00,2013-04-04 05:40:00,
2013-04-04 00:45:00,40.8,25.9,30.25,NE,45,3.0,6.0,55,0.00,,,0.00,VWS V14.00,2013-04-04 05:45:00,
2013-04-04 00:50:00,40.7,25.8,30.25,NE,45,3.0,5.0,55,0.00,,,0.00,VWS V14.00,2013-04-04 05:50:00,
2013-04-04 00:55:00,40.5,26.5,30.25,NE,45,3.0,5.0,57,0.00,,,0.00,VWS V14.00,2013-04-04 05:55:00,
2013-04-04 01:00:00,40.4,26.4,30.25,NE,45,3.0,5.0,57,0.00,,,0.00,VWS V14.00,2013-04-04 06:00:00,
2013-04-04 01:05:00,40.3,26.3,30.25,NE,45,3.0,5.0,57,0.00,,,0.00,VWS V14.00,2013-04-04 06:05:00,
2013-04-04 01:10:00,40.3,26.7,30.25,NE,45,3.0,5.0,58,0.00,,,0.00,VWS V14.00,2013-04-04 06:10:00,
2013-04-04 01:15:00,40.3,26.7,30.25,NE,45,2.0,5.0,58,0.00,,,0.00,VWS V14.00,2013-04-04 06:15:00,
2013-04-04 01:20:00,40.2,26.6,30.25,NE,45,2.0,4.0,58,0.00,,,0.00,VWS V14.00,2013-04-04 06:20:00,
2013-04-04 01:25:00,40.2,27.4,30.24,NE,45,2.0,7.0,60,0.00,,,0.00,VWS V14.00,2013-04-04 06:25:00,
2013-04-04 01:30:00,40.2,27.0,30.24,NE,45,3.0,5.0,59,0.00,,,0.00,VWS V14.00,2013-04-04 06:30:00,
2013-04-04 01:35:00,40.2,26.6,30.24,NE,45,3.0,5.0,58,0.00,,,0.00,VWS V14.00,2013-04-04 06:35:00,
2013-04-04 01:40:00,40.1,26.5,30.24,NE,45,3.0,5.0,58,0.00,,,0.00,VWS V14.00,2013-04-04 06:40:00,
2013-04-04 01:45:00,40.0,26.4,30.24,NE,45,2.0,5.0,58,0.00,,,0.00,VWS V14.00,2013-04-04 06:45:00,
2013-04-04 01:50:00,40.0,27.6,30.24,NE,45,2.0,5.0,61,0.00,,,0.00,VWS V14.00,2013-04-04 06:50:00,
2013-04-04 01:55:00,40.0,27.2,30.24,NE,45,2.0,6.0,60,0.00,,,0.00,VWS V14.00,2013-04-04 06:55:00,
2013-04-04 02:00:00,40.0,27.2,30.24,NE,45,2.0,4.0,60,0.00,,,0.00,VWS V14.00,2013-04-04 07:00:00,
2013-04-04 02:05:00,40.0,27.6,30.23,NE,45,3.0,5.0,61,0.00,,,0.00,VWS V14.00,2013-04-04 07:05:00,
2013-04-04 02:10:00,40.0,27.2,30.23,ENE,68,3.0,6.0,60,0.00,,,0.00,VWS V14.00,2013-04-04 07:10:00,
2013-04-04 02:15:00,40.0,26.8,30.23,ENE,68,4.0,6.0,59,0.00,,,0.00,VWS V14.00,2013-04-04 07:15:00,
2013-04-04 02:20:00,40.2,27.4,30.23,NE,45,2.0,5.0,60,0.00,,,0.00,VWS V14.00,2013-04-04 07:20:00,
2013-04-04 02:25:00,40.2,27.4,30.23,NE,45,2.0,4.0,60,0.00,,,0.00,VWS V14.00,2013-04-04 07:25:00,
2013-04-04 02:30:00,40.1,28.5,30.23,NE,45,2.0,5.0,63,0.00,,,0.00,VWS V14.00,2013-04-04 07:30:00,
2013-04-04 02:35:00,40.0,27.6,30.22,ENE,68,3.0,5.0,61,0.00,,,0.00,VWS V14.00,2013-04-04 07:35:00,
2013-04-04 02:40:00,39.9,27.6,30.22,ENE,68,2.0,3.0,61,0.00,,,0.00,VWS V14.00,2013-04-04 07:40:00,
2013-04-04 02:45:00,39.9,27.6,30.22,ENE,68,2.0,3.0,61,0.00,,,0.00,VWS V14.00,2013-04-04 07:45:00,
2013-04-04 02:50:00,39.8,26.7,30.22,ENE,68,2.0,3.0,59,0.00,,,0.00,VWS V14.00,2013-04-04 07:50:00,
2013-04-04 02:55:00,39.8,27.5,30.22,ENE,68,1.0,5.0,61,0.00,,,0.00,VWS V14.00,2013-04-04 07:55:00,
2013-04-04 03:00:00,39.8,26.2,30.22,ENE,68,1.0,3.0,58,0.00,,,0.00,VWS V14.00,2013-04-04 08:00:00,
2013-04-04 03:05:00,39.7,26.6,30.22,ENE,68,1.0,3.0,59,0.00,,,0.00,VWS V14.00,2013-04-04 08:05:00,
2013-04-04 03:10:00,39.7,26.6,30.22,ENE,68,1.0,2.0,59,0.00,,,0.00,VWS V14.00,2013-04-04 08:10:00,
2013-04-04 03:15:00,39.6,26.1,30.22,ENE,68,1.0,3.0,58,0.00,,,0.00,VWS V14.00,2013-04-04 08:15:00,
2013-04-04 03:20:00,39.6,26.9,30.22,ENE,68,2.0,3.0,60,0.00,,,0.00,VWS V14.00,2013-04-04 08:20:00,
2013-04-04 03:25:00,39.5,27.6,30.22,ENE,68,2.0,5.0,62,0.00,,,0.00,VWS V14.00,2013-04-04 08:25:00,
2013-04-04 03:30:00,39.5,28.0,30.21,ENE,68,1.0,3.0,63,0.00,,,0.00,VWS V14.00,2013-04-04 08:30:00,
2013-04-04 03:35:00,39.4,29.0,30.21,ENE,68,2.0,3.0,66,0.00,,,0.00,VWS V14.00,2013-04-04 08:35:00,
2013-04-04 03:40:00,39.2,27.7,30.21,ENE,68,2.0,3.0,63,0.00,,,0.00,VWS V14.00,2013-04-04 08:40:00,
2013-04-04 03:45:00,39.2,26.9,30.21,ENE,68,1.0,5.0,61,0.00,,,0.00,VWS V14.00,2013-04-04 08:45:00,
2013-04-04 03:50:00,39.1,27.2,30.21,ENE,68,2.0,5.0,62,0.00,,,0.00,VWS V14.00,2013-04-04 08:50:00,
2013-04-04 03:55:00,39.1,26.8,30.21,ENE,68,2.0,3.0,61,0.00,,,0.00,VWS V14.00,2013-04-04 08:55:00,
2013-04-04 04:00:00,39.1,27.2,30.20,ENE,68,2.0,5.0,62,0.00,,,0.00,VWS V14.00,2013-04-04 09:00:00,
2013-04-04 04:05:00,39.1,29.1,30.20,ENE,68,2.0,3.0,67,0.00,,,0.00,VWS V14.00,2013-04-04 09:05:00,
2013-04-04 04:10:00,39.0,27.9,30.20,ENE,68,1.0,2.0,64,0.00,,,0.00,VWS V14.00,2013-04-04 09:10:00,
2013-04-04 04:15:00,38.9,27.4,30.21,ENE,68,1.0,3.0,63,0.00,,,0.00,VWS V14.00,2013-04-04 09:15:00,
2013-04-04 04:20:00,38.9,27.0,30.21,ENE,68,0.0,2.0,62,0.00,,,0.00,VWS V14.00,2013-04-04 09:20:00,
2013-04-04 04:25:00,38.8,26.5,30.20,ENE,68,0.0,2.0,61,0.00,,,0.00,VWS V14.00,2013-04-04 09:25:00,
2013-04-04 04:30:00,38.8,27.3,30.20,ENE,68,0.0,1.0,63,0.00,,,0.00,VWS V14.00,2013-04-04 09:30:00,
2013-04-04 04:35:00,38.8,27.3,30.21,ENE,68,0.0,2.0,63,0.00,,,0.00,VWS V14.00,2013-04-04 09:35:00,
2013-04-04 04:40:00,38.8,26.5,30.21,ENE,68,0.0,0.0,61,0.00,,,0.00,VWS V14.00,2013-04-04 09:40:00,
2013-04-04 04:45:00,38.8,26.5,30.20,ENE,68,0.0,0.0,61,0.00,,,0.00,VWS V14.00,2013-04-04 09:45:00,
2013-04-04 04:50:00,38.8,26.5,30.21,ENE,68,0.0,2.0,61,0.00,,,0.00,VWS V14.00,2013-04-04 09:50:00,
2013-04-04 04:55:00,38.8,26.5,30.20,ENE,68,0.0,1.0,61,0.00,,,0.00,VWS V14.00,2013-04-04 09:55:00,
2013-04-04 05:00:00,38.8,26.9,30.20,ENE,68,0.0,0.0,62,0.00,,,0.00,VWS V14.00,2013-04-04 10:00:00,
2013-04-04 05:05:00,38.8,27.7,30.20,ENE,68,0.0,2.0,64,0.00,,,0.00,VWS V14.00,2013-04-04 10:05:00,
2013-04-04 05:10:00,38.8,26.9,30.20,ENE,68,0.0,0.0,62,0.00,,,0.00,VWS V14.00,2013-04-04 10:10:00,
2013-04-04 05:15:00,38.7,27.2,30.20,ENE,68,0.0,0.0,63,0.00,,,0.00,VWS V14.00,2013-04-04 10:15:00,
2013-04-04 05:20:00,38.7,27.6,30.20,ENE,68,0.0,0.0,64,0.00,,,0.00,VWS V14.00,2013-04-04 10:20:00,
2013-04-04 05:25:00,38.7,28.0,30.20,ENE,68,0.0,0.0,65,0.00,,,0.00,VWS V14.00,2013-04-04 10:25:00,
2013-04-04 05:30:00,38.7,27.6,30.20,ENE,68,0.0,0.0,64,0.00,,,0.00,VWS V14.00,2013-04-04 10:30:00,
2013-04-04 05:35:00,38.7,28.0,30.20,ENE,68,0.0,2.0,65,0.00,,,0.00,VWS V14.00,2013-04-04 10:35:00,
2013-04-04 05:40:00,38.7,27.6,30.20,ENE,68,1.0,2.0,64,0.00,,,0.00,VWS V14.00,2013-04-04 10:40:00,
2013-04-04 05:45:00,38.7,27.6,30.20,ENE,68,1.0,2.0,64,0.00,,,0.00,VWS V14.00,2013-04-04 10:45:00,
2013-04-04 05:50:00,38.7,28.0,30.20,ENE,68,1.0,3.0,65,0.00,,,0.00,VWS V14.00,2013-04-04 10:50:00,
2013-04-04 05:55:00,38.7,28.0,30.20,ENE,68,0.0,0.0,65,0.00,,,0.00,VWS V14.00,2013-04-04 10:55:00,
2013-04-04 06:00:00,38.7,28.0,30.20,ENE,68,0.0,2.0,65,0.00,,,0.00,VWS V14.00,2013-04-04 11:00:00,
2013-04-04 06:05:00,38.7,28.0,30.20,ENE,68,1.0,2.0,65,0.00,,,0.00,VWS V14.00,2013-04-04 11:05:00,
2013-04-04 06:10:00,38.7,28.7,30.20,ENE,68,0.0,2.0,67,0.00,,,0.00,VWS V14.00,2013-04-04 11:10:00,
2013-04-04 06:15:00,38.6,29.0,30.20,ENE,68,1.0,3.0,68,0.00,,,0.00,VWS V14.00,2013-04-04 11:15:00,
2013-04-04 06:20:00,38.6,28.6,30.20,ENE,68,1.0,3.0,67,0.00,,,0.00,VWS V14.00,2013-04-04 11:20:00,
2013-04-04 06:25:00,38.6,29.0,30.20,ENE,68,2.0,5.0,68,0.00,,,0.00,VWS V14.00,2013-04-04 11:25:00,
2013-04-04 06:30:00,38.6,29.3,30.20,ENE,68,1.0,2.0,69,0.00,,,0.00,VWS V14.00,2013-04-04 11:30:00,
2013-04-04 06:35:00,38.6,29.0,30.20,ENE,68,2.0,5.0,68,0.00,,,0.00,VWS V14.00,2013-04-04 11:35:00,
2013-04-04 06:40:00,38.6,28.6,30.20,ENE,68,2.0,5.0,67,0.00,,,0.00,VWS V14.00,2013-04-04 11:40:00,
2013-04-04 06:45:00,38.6,28.2,30.20,ENE,68,2.0,5.0,66,0.00,,,0.00,VWS V14.00,2013-04-04 11:45:00,
2013-04-04 06:50:00,38.6,28.2,30.21,ENE,68,1.0,3.0,66,0.00,,,0.00,VWS V14.00,2013-04-04 11:50:00,
2013-04-04 06:55:00,38.6,28.2,30.21,ENE,68,2.0,5.0,66,0.00,,,0.00,VWS V14.00,2013-04-04 11:55:00,
2013-04-04 07:00:00,38.6,28.6,30.21,ENE,68,2.0,5.0,67,0.00,,,0.00,VWS V14.00,2013-04-04 12:00:00,
2013-04-04 07:05:00,38.6,29.0,30.20,NNE,22,2.0,5.0,68,0.00,,,0.00,VWS V14.00,2013-04-04 12:05:00,
2013-04-04 07:10:00,38.6,29.3,30.20,NNE,22,1.0,4.0,69,0.00,,,0.00,VWS V14.00,2013-04-04 12:10:00,
2013-04-04 07:15:00,38.6,29.0,30.20,NNE,22,2.0,4.0,68,0.00,,,0.00,VWS V14.00,2013-04-04 12:15:00,
2013-04-04 07:20:00,38.6,29.7,30.20,NNE,22,1.0,4.0,70,0.00,,,0.00,VWS V14.00,2013-04-04 12:20:00,
2013-04-04 07:25:00,38.7,28.7,30.20,NNE,22,1.0,3.0,67,0.00,,,0.00,VWS V14.00,2013-04-04 12:25:00,
2013-04-04 07:30:00,38.7,28.3,30.21,NNE,22,1.0,4.0,66,0.00,,,0.00,VWS V14.00,2013-04-04 12:30:00,
2013-04-04 07:40:00,38.7,28.3,30.20,NNE,22,1.0,3.0,66,0.00,,,0.00,VWS V14.00,2013-04-04 12:40:00,
2013-04-04 07:45:00,38.6,29.3,30.20,NNE,22,1.0,2.0,69,0.00,,,0.00,VWS V14.00,2013-04-04 12:45:00,
2013-04-04 07:50:00,38.5,29.6,30.20,NNE,22,1.0,2.0,70,0.00,,,0.00,VWS V14.00,2013-04-04 12:50:00,
2013-04-04 07:55:00,38.5,29.9,30.20,NNE,22,2.0,4.0,71,0.00,,,0.00,VWS V14.00,2013-04-04 12:55:00,
2013-04-04 08:00:00,38.8,29.2,30.20,NE,45,1.0,4.0,68,0.00,,,0.00,VWS V14.00,2013-04-04 13:00:00,
2013-04-04 08:05:00,39.2,29.2,30.20,NE,45,1.0,3.0,67,0.00,,,0.00,VWS V14.00,2013-04-04 13:05:00,
2013-04-04 08:10:00,39.7,28.9,30.20,NE,45,1.0,5.0,65,0.00,,,0.00,VWS V14.00,2013-04-04 13:10:00,
2013-04-04 08:15:00,40.2,29.0,30.20,ENE,68,1.0,2.0,64,0.00,,,0.00,VWS V14.00,2013-04-04 13:15:00,
2013-04-04 08:20:00,40.6,29.4,30.20,ENE,68,1.0,5.0,64,0.00,,,0.00,VWS V14.00,2013-04-04 13:20:00,
2013-04-04 08:25:00,40.9,29.3,30.20,NE,45,2.0,4.0,63,0.00,,,0.00,VWS V14.00,2013-04-04 13:25:00,
2013-04-04 08:30:00,41.1,29.5,30.20,NE,45,2.0,5.0,63,0.00,,,0.00,VWS V14.00,2013-04-04 13:30:00,
2013-04-04 08:35:00,41.3,29.7,30.20,ENE,68,0.0,1.0,63,0.00,,,0.00,VWS V14.00,2013-04-04 13:35:00,
2013-04-04 08:40:00,41.6,30.0,30.20,ENE,68,1.0,3.0,63,0.00,,,0.00,VWS V14.00,2013-04-04 13:40:00,
2013-04-04 08:45:00,41.8,29.8,30.19,ENE,68,1.0,2.0,62,0.00,,,0.00,VWS V14.00,2013-04-04 13:45:00,
2013-04-04 08:50:00,41.9,29.5,30.19,ENE,68,2.0,3.0,61,0.00,,,0.00,VWS V14.00,2013-04-04 13:50:00,
2013-04-04 08:55:00,42.1,29.2,30.19,ENE,68,1.0,3.0,60,0.00,,,0.00,VWS V14.00,2013-04-04 13:55:00,
2013-04-04 09:00:00,42.2,29.3,30.19,ENE,68,1.0,3.0,60,0.00,,,0.00,VWS V14.00,2013-04-04 14:00:00,
2013-04-04 09:05:00,42.5,28.8,30.19,ENE,68,2.0,3.0,58,0.00,,,0.00,VWS V14.00,2013-04-04 14:05:00,
2013-04-04 09:10:00,42.9,29.2,30.19,ENE,68,1.0,3.0,58,0.00,,,0.00,VWS V14.00,2013-04-04 14:10:00,
2013-04-04 09:15:00,43.2,28.6,30.19,ENE,68,1.0,2.0,56,0.00,,,0.00,VWS V14.00,2013-04-04 14:15:00,
2013-04-04 09:20:00,43.4,28.8,30.18,ENE,68,1.0,3.0,56,0.00,,,0.00,VWS V14.00,2013-04-04 14:20:00,
2013-04-04 09:25:00,43.8,28.7,30.18,ENE,68,0.0,2.0,55,0.00,,,0.00,VWS V14.00,2013-04-04 14:25:00,
2013-04-04 09:30:00,44.0,29.3,30.18,ENE,68,0.0,1.0,56,0.00,,,0.00,VWS V14.00,2013-04-04 14:30:00,
2013-04-04 09:35:00,44.2,29.5,30.18,ENE,68,0.0,1.0,56,0.00,,,0.00,VWS V14.00,2013-04-04 14:35:00,
2013-04-04 09:40:00,44.5,29.4,30.18,ENE,68,1.0,4.0,55,0.00,,,0.00,VWS V14.00,2013-04-04 14:40:00,
2013-04-04 09:45:00,45.1,29.0,30.18,NNW,338,1.0,4.0,53,0.00,,,0.00,VWS V14.00,2013-04-04 14:45:00,
2013-04-04 09:50:00,45.4,28.4,30.18,NNW,338,1.0,3.0,51,0.00,,,0.00,VWS V14.00,2013-04-04 14:50:00,
2013-04-04 09:55:00,45.6,28.5,30.18,NNW,338,0.0,2.0,51,0.00,,,0.00,VWS V14.00,2013-04-04 14:55:00,
2013-04-04 10:00:00,45.9,29.3,30.18,NNW,338,0.0,1.0,52,0.00,,,0.00,VWS V14.00,2013-04-04 15:00:00,
2013-04-04 10:05:00,46.3,29.6,30.18,NNW,338,0.0,0.0,52,0.00,,,0.00,VWS V14.00,2013-04-04 15:05:00,
2013-04-04 10:10:00,46.5,29.4,30.18,North,0,1.0,4.0,51,0.00,,,0.00,VWS V14.00,2013-04-04 15:10:00,
2013-04-04 10:15:00,46.8,29.2,30.18,North,0,1.0,3.0,50,0.00,,,0.00,VWS V14.00,2013-04-04 15:15:00,
2013-04-04 10:20:00,47.0,28.9,30.18,North,0,0.0,1.0,49,0.00,,,0.00,VWS V14.00,2013-04-04 15:20:00,
2013-04-04 10:25:00,47.3,28.6,30.18,North,0,0.0,2.0,48,0.00,,,0.00,VWS V14.00,2013-04-04 15:25:00,
2013-04-04 10:30:00,47.7,28.5,30.18,NNW,338,2.0,4.0,47,0.00,,,0.00,VWS V14.00,2013-04-04 15:30:00,
2013-04-04 10:35:00,48.1,29.4,30.18,NNW,338,3.0,6.0,48,0.00,,,0.00,VWS V14.00,2013-04-04 15:35:00,
2013-04-04 10:40:00,48.5,28.7,30.18,WNW,292,1.0,3.0,46,0.00,,,0.00,VWS V14.00,2013-04-04 15:40:00,
2013-04-04 10:45:00,48.6,28.8,30.18,WNW,292,0.0,1.0,46,0.00,,,0.00,VWS V14.00,2013-04-04 15:45:00,
2013-04-04 10:50:00,49.0,29.7,30.18,WNW,292,0.0,1.0,47,0.00,,,0.00,VWS V14.00,2013-04-04 15:50:00,
2013-04-04 10:55:00,49.1,28.1,30.18,WNW,292,0.0,1.0,44,0.00,,,0.00,VWS V14.00,2013-04-04 15:55:00,
2013-04-04 11:00:00,49.4,28.4,30.18,WNW,292,1.0,4.0,44,0.00,,,0.00,VWS V14.00,2013-04-04 16:00:00,
2013-04-04 11:05:00,49.8,28.8,30.18,WNW,292,2.0,4.0,44,0.00,,,0.00,VWS V14.00,2013-04-04 16:05:00,
2013-04-04 11:10:00,50.3,28.7,30.18,WNW,292,1.0,4.0,43,0.00,,,0.00,VWS V14.00,2013-04-04 16:10:00,
2013-04-04 11:15:00,50.7,29.0,30.18,WNW,292,3.0,6.0,43,0.00,,,0.00,VWS V14.00,2013-04-04 16:15:00,
2013-04-04 11:20:00,51.2,29.5,30.18,WNW,292,3.0,6.0,43,0.00,,,0.00,VWS V14.00,2013-04-04 16:20:00,
2013-04-04 11:25:00,51.5,28.6,30.18,WNW,292,3.0,5.0,41,0.00,,,0.00,VWS V14.00,2013-04-04 16:25:00,
2013-04-04 11:30:00,51.6,28.1,30.18,NNW,338,3.0,8.0,40,0.00,,,0.00,VWS V14.00,2013-04-04 16:30:00,
2013-04-04 11:35:00,51.6,28.1,30.18,NNW,338,4.0,8.0,40,0.00,,,0.00,VWS V14.00,2013-04-04 16:35:00,
2013-04-04 11:40:00,51.7,28.2,30.18,NW,315,6.0,10.0,40,0.00,,,0.00,VWS V14.00,2013-04-04 16:40:00,
2013-04-04 11:45:00,52.2,28.6,30.18,NW,315,6.0,9.0,40,0.00,,,0.00,VWS V14.00,2013-04-04 16:45:00,
2013-04-04 11:50:00,52.8,29.2,30.18,NW,315,4.0,8.0,40,0.00,,,0.00,VWS V14.00,2013-04-04 16:50:00,
2013-04-04 11:55:00,53.4,28.5,30.18,WNW,292,4.0,9.0,38,0.00,,,0.00,VWS V14.00,2013-04-04 16:55:00,
2013-04-04 12:00:00,53.9,28.9,30.18,NNW,338,3.0,9.0,38,0.00,,,0.00,VWS V14.00,2013-04-04 17:00:00,
2013-04-04 12:05:00,54.7,28.3,30.18,WNW,292,3.0,7.0,36,0.00,,,0.00,VWS V14.00,2013-04-04 17:05:00,
2013-04-04 12:10:00,54.9,28.5,30.17,NW,315,1.0,4.0,36,0.00,,,0.00,VWS V14.00,2013-04-04 17:10:00,
2013-04-04 12:15:00,55.0,25.7,30.17,NE,45,2.0,10.0,32,0.00,,,0.00,VWS V14.00,2013-04-04 17:15:00,
2013-04-04 12:20:00,55.2,25.1,30.17,NW,315,2.0,6.0,31,0.00,,,0.00,VWS V14.00,2013-04-04 17:20:00,
2013-04-04 12:25:00,56.3,26.8,30.17,NW,315,2.0,9.0,32,0.00,,,0.00,VWS V14.00,2013-04-04 17:25:00,
2013-04-04 12:30:00,57.0,26.7,30.17,NNE,22,3.0,8.0,31,0.00,,,0.00,VWS V14.00,2013-04-04 17:30:00,
2013-04-04 12:35:00,57.5,26.3,30.17,North,0,1.0,6.0,30,0.00,,,0.00,VWS V14.00,2013-04-04 17:35:00,
2013-04-04 12:40:00,58.0,25.1,30.16,North,0,5.0,10.0,28,0.00,,,0.00,VWS V14.00,2013-04-04 17:40:00,
2013-04-04 12:45:00,58.0,25.1,30.16,North,0,4.0,9.0,28,0.00,,,0.00,VWS V14.00,2013-04-04 17:45:00,
2013-04-04 12:50:00,58.2,26.9,30.16,NE,45,5.0,9.0,30,0.00,,,0.00,VWS V14.00,2013-04-04 17:50:00,
2013-04-04 12:55:00,57.4,24.6,30.15,NE,45,3.0,8.0,28,0.00,,,0.00,VWS V14.00,2013-04-04 17:55:00,
2013-04-04 13:00:00,57.4,24.6,30.15,NNE,22,3.0,9.0,28,0.00,,,0.00,VWS V14.00,2013-04-04 18:00:00,
2013-04-04 13:05:00,57.6,27.2,30.15,NNE,22,1.0,4.0,31,0.00,,,0.00,VWS V14.00,2013-04-04 18:05:00,
2013-04-04 13:10:00,58.1,25.2,30.14,NE,45,2.0,8.0,28,0.00,,,0.00,VWS V14.00,2013-04-04 18:10:00,
2013-04-04 13:15:00,58.7,23.0,30.14,North,0,1.0,5.0,25,0.00,,,0.00,VWS V14.00,2013-04-04 18:15:00,
2013-04-04 13:20:00,59.3,24.4,30.14,NNW,338,3.0,7.0,26,0.00,,,0.00,VWS V14.00,2013-04-04 18:20:00,
2013-04-04 13:25:00,59.8,25.8,30.13,NE,45,1.0,4.0,27,0.00,,,0.00,VWS V14.00,2013-04-04 18:25:00,
2013-04-04 13:30:00,59.6,25.6,30.13,NE,45,2.0,5.0,27,0.00,,,0.00,VWS V14.00,2013-04-04 18:30:00,
2013-04-04 13:35:00,59.5,25.5,30.13,WNW,292,1.0,4.0,27,0.00,,,0.00,VWS V14.00,2013-04-04 18:35:00,
2013-04-04 13:40:00,59.6,25.6,30.13,NNW,338,1.0,4.0,27,0.00,,,0.00,VWS V14.00,2013-04-04 18:40:00,
2013-04-04 13:45:00,59.8,26.6,30.13,North,0,3.0,10.0,28,0.00,,,0.00,VWS V14.00,2013-04-04 18:45:00,
2013-04-04 13:50:00,60.7,24.7,30.13,NNE,22,2.0,6.0,25,0.00,,,0.00,VWS V14.00,2013-04-04 18:50:00,
2013-04-04 13:55:00,60.4,26.3,30.13,WSW,248,2.0,4.0,27,0.00,,,0.00,VWS V14.00,2013-04-04 18:55:00,
2013-04-04 14:00:00,60.9,24.9,30.13,WNW,292,3.0,9.0,25,0.00,,,0.00,VWS V14.00,2013-04-04 19:00:00,
2013-04-04 14:05:00,60.7,24.7,30.12,NNE,22,1.0,5.0,25,0.00,,,0.00,VWS V14.00,2013-04-04 19:05:00,
2013-04-04 14:10:00,61.0,26.8,30.12,NNW,338,1.0,7.0,27,0.00,,,0.00,VWS V14.00,2013-04-04 19:10:00,
2013-04-04 14:15:00,61.9,26.7,30.12,North,0,2.0,7.0,26,0.00,,,0.00,VWS V14.00,2013-04-04 19:15:00,
2013-04-04 14:20:00,62.0,25.8,30.11,North,0,3.0,9.0,25,0.00,,,0.00,VWS V14.00,2013-04-04 19:20:00,
2013-04-04 14:25:00,62.4,25.2,30.11,NW,315,6.0,11.0,24,0.00,,,0.00,VWS V14.00,2013-04-04 19:25:00,
2013-04-04 14:30:00,62.5,25.2,30.11,North,0,4.0,10.0,24,0.00,,,0.00,VWS V14.00,2013-04-04 19:30:00,
2013-04-04 14:35:00,62.3,24.1,30.11,NNW,338,1.0,6.0,23,0.00,,,0.00,VWS V14.00,2013-04-04 19:35:00,
2013-04-04 14:40:00,62.2,25.0,30.11,NNW,338,1.0,6.0,24,0.00,,,0.00,VWS V14.00,2013-04-04 19:40:00,
2013-04-04 14:45:00,62.6,25.3,30.11,NNW,338,4.0,11.0,24,0.00,,,0.00,VWS V14.00,2013-04-04 19:45:00,
2013-04-04 14:50:00,63.3,24.9,30.11,North,0,5.0,9.0,23,0.00,,,0.00,VWS V14.00,2013-04-04 19:50:00,
2013-04-04 14:55:00,63.0,23.6,30.11,North,0,3.0,7.0,22,0.00,,,0.00,VWS V14.00,2013-04-04 19:55:00,
2013-04-04 15:00:00,62.3,24.1,30.11,NE,45,1.0,5.0,23,0.00,,,0.00,VWS V14.00,2013-04-04 20:00:00,
2013-04-04 15:05:00,62.3,25.1,30.10,NW,315,2.0,6.0,24,0.00,,,0.00,VWS V14.00,2013-04-04 20:05:00,
2013-04-04 15:10:00,62.9,23.5,30.10,North,0,3.0,8.0,22,0.00,,,0.00,VWS V14.00,2013-04-04 20:10:00,
2013-04-04 15:15:00,63.1,25.8,30.10,NNW,338,4.0,8.0,24,0.00,,,0.00,VWS V14.00,2013-04-04 20:15:00,
2013-04-04 15:20:00,63.1,23.7,30.10,NNW,338,3.0,6.0,22,0.00,,,0.00,VWS V14.00,2013-04-04 20:20:00,
2013-04-04 15:25:00,62.6,24.3,30.09,NNW,338,2.0,6.0,23,0.00,,,0.00,VWS V14.00,2013-04-04 20:25:00,
2013-04-04 15:30:00,62.5,24.2,30.09,ENE,68,2.0,7.0,23,0.00,,,0.00,VWS V14.00,2013-04-04 20:30:00,
2013-04-04 15:35:00,62.4,25.2,30.09,NE,45,1.0,4.0,24,0.00,,,0.00,VWS V14.00,2013-04-04 20:35:00,
2013-04-04 15:40:00,62.8,23.4,30.09,NNW,338,3.0,6.0,22,0.00,,,0.00,VWS V14.00,2013-04-04 20:40:00,
2013-04-04 15:45:00,63.1,23.7,30.08,NNW,338,4.0,9.0,22,0.00,,,0.00,VWS V14.00,2013-04-04 20:45:00,
2013-04-04 15:50:00,62.9,23.5,30.08,NNW,338,2.0,6.0,22,0.00,,,0.00,VWS V14.00,2013-04-04 20:50:00,
2013-04-04 15:55:00,62.7,24.4,30.08,NE,45,1.0,6.0,23,0.00,,,0.00,VWS V14.00,2013-04-04 20:55:00,
2013-04-04 16:00:00,62.4,25.2,30.08,ENE,68,1.0,3.0,24,0.00,,,0.00,VWS V14.00,2013-04-04 21:00:00,
2013-04-04 16:05:00,62.3,24.1,30.08,NE,45,0.0,2.0,23,0.00,,,0.00,VWS V14.00,2013-04-04 21:05:00,
2013-04-04 16:10:00,62.7,25.4,30.08,NW,315,1.0,7.0,24,0.00,,,0.00,VWS V14.00,2013-04-04 21:10:00,
2013-04-04 16:15:00,63.1,23.7,30.08,NE,45,4.0,11.0,22,0.00,,,0.00,VWS V14.00,2013-04-04 21:15:00,
2013-04-04 16:20:00,62.9,25.6,30.08,NE,45,4.0,11.0,24,0.00,,,0.00,VWS V14.00,2013-04-04 21:20:00,
2013-04-04 16:25:00,62.8,25.5,30.08,North,0,3.0,8.0,24,0.00,,,0.00,VWS V14.00,2013-04-04 21:25:00,
2013-04-04 16:30:00,62.7,24.4,30.08,NNE,22,2.0,9.0,23,0.00,,,0.00,VWS V14.00,2013-04-04 21:30:00,
2013-04-04 16:35:00,62.2,24.0,30.07,NE,45,4.0,9.0,23,0.00,,,0.00,VWS V14.00,2013-04-04 21:35:00,
2013-04-04 16:40:00,62.2,24.0,30.07,North,0,2.0,5.0,23,0.00,,,0.00,VWS V14.00,2013-04-04 21:40:00,
2013-04-04 16:45:00,62.4,23.1,30.07,NW,315,3.0,6.0,22,0.00,,,0.00,VWS V14.00,2013-04-04 21:45:00,
2013-04-04 16:50:00,62.5,24.2,30.07,NNW,338,2.0,6.0,23,0.00,,,0.00,VWS V14.00,2013-04-04 21:50:00,
2013-04-04 16:55:00,62.9,21.2,30.07,North,0,4.0,7.0,20,0.00,,,0.00,VWS V14.00,2013-04-04 21:55:00,
2013-04-04 17:00:00,63.1,24.7,30.07,NW,315,3.0,7.0,23,0.00,,,0.00,VWS V14.00,2013-04-04 22:00:00,
2013-04-04 17:05:00,62.9,21.2,30.07,North,0,4.0,8.0,20,0.00,,,0.00,VWS V14.00,2013-04-04 22:05:00,
2013-04-04 17:10:00,62.7,23.3,30.07,NNW,338,5.0,9.0,22,0.00,,,0.00,VWS V14.00,2013-04-04 22:10:00,
2013-04-04 17:15:00,62.7,24.4,30.07,NNW,338,4.0,8.0,23,0.00,,,0.00,VWS V14.00,2013-04-04 22:15:00,
2013-04-04 17:20:00,62.8,22.3,30.07,NNW,338,5.0,10.0,21,0.00,,,0.00,VWS V14.00,2013-04-04 22:20:00,
2013-04-04 17:25:00,62.6,23.2,30.07,North,0,3.0,8.0,22,0.00,,,0.00,VWS V14.00,2013-04-04 22:25:00,
2013-04-04 17:30:00,62.4,23.1,30.07,West,270,1.0,3.0,22,0.00,,,0.00,VWS V14.00,2013-04-04 22:30:00,
2013-04-04 17:35:00,62.2,22.9,30.07,WSW,248,0.0,2.0,22,0.00,,,0.00,VWS V14.00,2013-04-04 22:35:00,
2013-04-04 17:40:00,62.1,22.8,30.07,North,0,1.0,4.0,22,0.00,,,0.00,VWS V14.00,2013-04-04 22:40:00,
2013-04-04 17:45:00,62.2,22.9,30.07,NW,315,3.0,8.0,22,0.00,,,0.00,VWS V14.00,2013-04-04 22:45:00,
2013-04-04 17:50:00,62.2,22.9,30.07,NW,315,4.0,8.0,22,0.00,,,0.00,VWS V14.00,2013-04-04 22:50:00,
2013-04-04 17:55:00,62.1,21.7,30.07,NW,315,3.0,6.0,21,0.00,,,0.00,VWS V14.00,2013-04-04 22:55:00,
2013-04-04 18:00:00,62.0,21.6,30.07,NW,315,4.0,7.0,21,0.00,,,0.00,VWS V14.00,2013-04-04 23:00:00,
2013-04-04 18:05:00,62.0,22.8,30.07,NNW,338,3.0,6.0,22,0.00,,,0.00,VWS V14.00,2013-04-04 23:05:00,
2013-04-04 18:10:00,62.0,23.8,30.07,NNW,338,3.0,6.0,23,0.00,,,0.00,VWS V14.00,2013-04-04 23:10:00,
2013-04-04 18:15:00,61.9,23.7,30.07,NNW,338,3.0,7.0,23,0.00,,,0.00,VWS V14.00,2013-04-04 23:15:00,
2013-04-04 18:20:00,61.7,23.5,30.07,NNW,338,2.0,5.0,23,0.00,,,0.00,VWS V14.00,2013-04-04 23:20:00,
2013-04-04 18:25:00,61.5,23.4,30.07,NNW,338,1.0,4.0,23,0.00,,,0.00,VWS V14.00,2013-04-04 23:25:00,
2013-04-04 18:30:00,61.3,26.1,30.07,NNW,338,1.0,4.0,26,0.00,,,0.00,VWS V14.00,2013-04-04 23:30:00,
2013-04-04 18:35:00,61.1,22.0,30.07,NNW,338,2.0,5.0,22,0.00,,,0.00,VWS V14.00,2013-04-04 23:35:00,
2013-04-04 18:40:00,60.8,22.8,30.07,NW,315,3.0,7.0,23,0.00,,,0.00,VWS V14.00,2013-04-04 23:40:00,
2013-04-04 18:45:00,60.5,23.5,30.07,NW,315,3.0,5.0,24,0.00,,,0.00,VWS V14.00,2013-04-04 23:45:00,
2013-04-04 18:50:00,60.3,23.4,30.07,NW,315,1.0,4.0,24,0.00,,,0.00,VWS V14.00,2013-04-04 23:50:00,
2013-04-04 18:55:00,60.1,23.2,30.07,NNW,338,4.0,7.0,24,0.00,,,0.00,VWS V14.00,2013-04-04 23:55:00,
2013-04-04 19:00:00,59.8,23.9,30.07,NW,315,2.0,6.0,25,0.00,,,0.00,VWS V14.00,2013-04-05 00:00:00,
2013-04-04 19:05:00,59.4,24.5,30.07,NW,315,2.0,5.0,26,0.00,,,0.00,VWS V14.00,2013-04-05 00:05:00,
2013-04-04 19:10:00,59.0,24.2,30.07,NNW,338,2.0,5.0,26,0.00,,,0.00,VWS V14.00,2013-04-05 00:10:00,
2013-04-04 19:15:00,58.6,23.8,30.07,NW,315,2.0,5.0,26,0.00,,,0.00,VWS V14.00,2013-04-05 00:15:00,
2013-04-04 19:20:00,58.2,23.5,30.07,NW,315,0.0,1.0,26,0.00,,,0.00,VWS V14.00,2013-04-05 00:20:00,
2013-04-04 19:25:00,57.6,23.9,30.07,NW,315,1.0,3.0,27,0.00,,,0.00,VWS V14.00,2013-04-05 00:25:00,
2013-04-04 19:33:00,57.6,23.9,30.07,NW,315,1.0,3.0,27,0.00,,,0.00,VWS V14.00,2013-04-05 00:33:00,
2013-04-04 19:35:00,56.7,23.1,30.07,NW,322,0.0,1.0,27,0.00,,,0.00,VWS V14.00,2013-04-05 00:35:00,
2013-04-04 19:38:00,56.4,23.7,30.07,NW,322,0.0,2.0,28,0.00,,,0.00,VWS V14.00,2013-04-05 00:38:00,
2013-04-04 19:40:00,56.2,23.5,30.07,NW,322,0.0,2.0,28,0.00,,,0.00,VWS V14.00,2013-04-05 00:40:00,
2013-04-04 19:43:00,56.0,23.4,30.07,NW,322,0.0,2.0,28,0.00,,,0.00,VWS V14.00,2013-04-05 00:43:00,
2013-04-04 19:45:00,55.8,23.2,30.07,NW,322,1.0,2.0,28,0.00,,,0.00,VWS V14.00,2013-04-05 00:45:00,
2013-04-04 19:48:00,55.5,23.0,30.07,NW,322,1.0,3.0,28,0.00,,,0.00,VWS V14.00,2013-04-05 00:48:00,
2013-04-04 19:50:00,55.3,22.8,30.07,NW,322,2.0,3.0,28,0.00,,,0.00,VWS V14.00,2013-04-05 00:50:00,
2013-04-04 19:53:00,55.1,23.4,30.07,NW,322,2.0,3.0,29,0.00,,,0.00,VWS V14.00,2013-04-05 00:53:00,
2013-04-04 19:55:00,54.9,23.3,30.07,NW,322,1.0,3.0,29,0.00,,,0.00,VWS V14.00,2013-04-05 00:55:00,
2013-04-04 19:58:00,54.6,23.0,30.07,NW,322,1.0,2.0,29,0.00,,,0.00,VWS V14.00,2013-04-05 00:58:00,
2013-04-04 20:00:00,54.4,22.8,30.07,NW,322,0.0,2.0,29,0.00,,,0.00,VWS V14.00,2013-04-05 01:00:00,
2013-04-04 20:03:00,54.2,22.6,30.07,NW,322,1.0,2.0,29,0.00,,,0.00,VWS V14.00,2013-04-05 01:03:00,
2013-04-04 20:05:00,54.1,23.4,30.08,NW,322,1.0,3.0,30,0.00,,,0.00,VWS V14.00,2013-04-05 01:05:00,
2013-04-04 20:08:00,53.9,23.2,30.07,NW,322,2.0,3.0,30,0.00,,,0.00,VWS V14.00,2013-04-05 01:08:00,
2013-04-04 20:10:00,53.7,23.0,30.07,NW,322,1.0,3.0,30,0.00,,,0.00,VWS V14.00,2013-04-05 01:10:00,
2013-04-04 20:13:00,53.5,22.9,30.08,NW,322,1.0,2.0,30,0.00,,,0.00,VWS V14.00,2013-04-05 01:13:00,
2013-04-04 20:15:00,53.3,22.7,30.07,NW,322,1.0,2.0,30,0.00,,,0.00,VWS V14.00,2013-04-05 01:15:00,
2013-04-04 20:18:00,53.1,22.5,30.08,NW,322,1.0,2.0,30,0.00,,,0.00,VWS V14.00,2013-04-05 01:18:00,
2013-04-04 20:20:00,52.9,22.3,30.08,NW,322,1.0,2.0,30,0.00,,,0.00,VWS V14.00,2013-04-05 01:20:00,
2013-04-04 20:23:00,52.8,23.0,30.08,NW,322,0.0,1.0,31,0.00,,,0.00,VWS V14.00,2013-04-05 01:23:00,
2013-04-04 20:25:00,52.7,22.9,30.08,NW,322,1.0,2.0,31,0.00,,,0.00,VWS V14.00,2013-04-05 01:25:00,
2013-04-04 20:28:00,52.6,22.9,30.08,NW,322,1.0,2.0,31,0.00,,,0.00,VWS V14.00,2013-04-05 01:28:00,
2013-04-04 20:30:00,52.5,22.8,30.08,NW,322,0.0,2.0,31,0.00,,,0.00,VWS V14.00,2013-04-05 01:30:00,
2013-04-04 20:33:00,52.3,22.6,30.08,NW,322,1.0,2.0,31,0.00,,,0.00,VWS V14.00,2013-04-05 01:33:00,
2013-04-04 20:35:00,52.1,22.4,30.08,NW,322,1.0,2.0,31,0.00,,,0.00,VWS V14.00,2013-04-05 01:35:00,
2013-04-04 20:38:00,51.9,22.2,30.08,NW,322,1.0,2.0,31,0.00,,,0.00,VWS V14.00,2013-04-05 01:38:00,
2013-04-04 20:40:00,51.8,22.1,30.08,NW,322,2.0,2.0,31,0.00,,,0.00,VWS V14.00,2013-04-05 01:40:00,
2013-04-04 20:43:00,51.7,22.8,30.08,NW,322,1.0,2.0,32,0.00,,,0.00,VWS V14.00,2013-04-05 01:43:00,
2013-04-04 20:45:00,51.7,22.8,30.08,NW,322,2.0,2.0,32,0.00,,,0.00,VWS V14.00,2013-04-05 01:45:00,
2013-04-04 20:48:00,51.6,22.7,30.08,NW,322,2.0,2.0,32,0.00,,,0.00,VWS V14.00,2013-04-05 01:48:00,
2013-04-04 20:50:00,51.6,22.7,30.08,NW,322,1.0,2.0,32,0.00,,,0.00,VWS V14.00,2013-04-05 01:50:00,
2013-04-04 20:53:00,51.6,22.7,30.09,NW,322,1.0,2.0,32,0.00,,,0.00,VWS V14.00,2013-04-05 01:53:00,
2013-04-04 20:55:00,51.5,22.6,30.09,NW,322,1.0,2.0,32,0.00,,,0.00,VWS V14.00,2013-04-05 01:55:00,
2013-04-04 20:58:00,51.4,22.5,30.09,NW,322,2.0,2.0,32,0.00,,,0.00,VWS V14.00,2013-04-05 01:58:00,
2013-04-04 21:00:00,51.2,23.1,30.09,NW,322,2.0,2.0,33,0.00,,,0.00,VWS V14.00,2013-04-05 02:00:00,
2013-04-04 21:03:00,51.0,22.9,30.09,NW,322,1.0,2.0,33,0.00,,,0.00,VWS V14.00,2013-04-05 02:03:00,
2013-04-04 21:05:00,50.9,22.8,30.09,NW,322,1.0,2.0,33,0.00,,,0.00,VWS V14.00,2013-04-05 02:05:00,
2013-04-04 21:08:00,50.8,22.8,30.09,NW,322,2.0,3.0,33,0.00,,,0.00,VWS V14.00,2013-04-05 02:08:00,
2013-04-04 21:10:00,50.8,22.8,30.09,NW,322,1.0,3.0,33,0.00,,,0.00,VWS V14.00,2013-04-05 02:10:00,
2013-04-04 21:13:00,50.7,22.7,30.09,NW,322,1.0,1.0,33,0.00,,,0.00,VWS V14.00,2013-04-05 02:13:00,
2013-04-04 21:15:00,50.5,23.2,30.09,NW,322,1.0,2.0,34,0.00,,,0.00,VWS V14.00,2013-04-05 02:15:00,
2013-04-04 21:18:00,50.3,23.0,30.09,NW,322,2.0,2.0,34,0.00,,,0.00,VWS V14.00,2013-04-05 02:18:00,
2013-04-04 21:20:00,50.0,23.4,30.09,NW,322,1.0,2.0,35,0.00,,,0.00,VWS V14.00,2013-04-05 02:20:00,
2013-04-04 21:23:00,49.6,23.8,30.09,NW,322,1.0,2.0,36,0.00,,,0.00,VWS V14.00,2013-04-05 02:23:00,
2013-04-04 21:25:00,49.4,24.2,30.10,NW,322,1.0,3.0,37,0.00,,,0.00,VWS V14.00,2013-04-05 02:25:00,
2013-04-04 21:28:00,49.0,23.2,30.09,NW,322,1.0,2.0,36,0.00,,,0.00,VWS V14.00,2013-04-05 02:28:00,
2013-04-04 21:30:00,48.8,23.7,30.09,NW,322,0.0,2.0,37,0.00,,,0.00,VWS V14.00,2013-04-05 02:30:00,
2013-04-04 21:33:00,48.6,24.2,30.09,NW,322,1.0,2.0,38,0.00,,,0.00,VWS V14.00,2013-04-05 02:33:00,
2013-04-04 21:35:00,48.3,23.2,30.10,NW,322,0.0,2.0,37,0.00,,,0.00,VWS V14.00,2013-04-05 02:35:00,
2013-04-04 21:38:00,48.0,23.6,30.10,NW,322,0.0,0.0,38,0.00,,,0.00,VWS V14.00,2013-04-05 02:38:00,
2013-04-04 21:40:00,47.8,23.4,30.10,NW,322,0.0,0.0,38,0.00,,,0.00,VWS V14.00,2013-04-05 02:40:00,
2013-04-04 21:43:00,47.4,23.1,30.10,NW,322,0.0,0.0,38,0.00,,,0.00,VWS V14.00,2013-04-05 02:43:00,
2013-04-04 21:45:00,47.2,22.9,30.10,North,0,0.0,0.0,38,0.00,,,0.00,VWS V14.00,2013-04-05 02:45:00,
2013-04-04 21:56:00,46.7,23.1,30.10,North,0,0.0,0.0,39,0.00,,,0.00,VWS V14.00,2013-04-05 02:56:00,
2013-04-04 22:01:00,46.2,23.2,30.10,NW,322,0.0,0.0,40,0.00,,,0.00,VWS V14.00,2013-04-05 03:01:00,
2013-04-04 22:06:00,46.0,24.8,30.10,NW,322,0.0,0.0,43,0.00,,,0.00,VWS V14.00,2013-04-05 03:06:00,
2013-04-04 22:11:00,45.6,24.4,30.10,NW,322,0.0,0.0,43,0.00,,,0.00,VWS V14.00,2013-04-05 03:11:00,
2013-04-04 22:16:00,45.2,25.1,30.10,NW,322,0.0,0.0,45,0.00,,,0.00,VWS V14.00,2013-04-05 03:16:00,
2013-04-04 22:21:00,44.9,27.9,30.10,NW,322,0.0,0.0,51,0.00,,,0.00,VWS V14.00,2013-04-05 03:21:00,
2013-04-04 22:30:00,44.5,29.4,30.10,North,0,0.0,0.0,55,0.00,,,0.00,VWS V14.00,2013-04-05 03:30:00,
2013-04-04 22:35:00,44.3,28.7,30.10,North,0,0.0,0.0,54,0.00,,,0.00,VWS V14.00,2013-04-05 03:35:00,
2013-04-04 22:40:00,44.0,29.3,30.10,North,0,0.0,0.0,56,0.00,,,0.00,VWS V14.00,2013-04-05 03:40:00,
2013-04-04 22:45:00,43.8,28.2,30.11,North,0,0.0,0.0,54,0.00,,,0.00,VWS V14.00,2013-04-05 03:45:00,
2013-04-04 22:50:00,43.5,26.6,30.10,North,0,0.0,0.0,51,0.00,,,0.00,VWS V14.00,2013-04-05 03:50:00,
2013-04-04 22:55:00,43.3,26.4,30.11,North,0,0.0,0.0,51,0.00,,,0.00,VWS V14.00,2013-04-05 03:55:00,
2013-04-04 23:00:00,42.9,26.0,30.11,North,0,0.0,0.0,51,0.00,,,0.00,VWS V14.00,2013-04-05 04:00:00,
2013-04-04 23:05:00,42.6,25.8,30.11,North,0,0.0,0.0,51,0.00,,,0.00,VWS V14.00,2013-04-05 04:05:00,
2013-04-04 23:10:00,42.3,25.9,30.11,SSW,202,0.0,4.0,52,0.00,,,0.00,VWS V14.00,2013-04-05 04:10:00,
2013-04-04 23:15:00,42.0,26.6,30.11,SSW,202,2.0,4.0,54,0.00,,,0.00,VWS V14.00,2013-04-05 04:15:00,
2013-04-04 23:20:00,41.6,26.2,30.11,SSW,202,2.0,4.0,54,0.00,,,0.00,VWS V14.00,2013-04-05 04:20:00,
2013-04-04 23:25:00,41.4,27.8,30.11,SSW,202,2.0,4.0,58,0.00,,,0.00,VWS V14.00,2013-04-05 04:25:00,
2013-04-04 23:40:00,41.0,28.2,30.11,SSW,202,0.0,1.0,60,0.00,,,0.00,VWS V14.00,2013-04-05 04:40:00,
2013-04-04 23:45:00,40.8,27.2,30.11,SSW,202,4.0,4.0,58,0.00,,,0.00,VWS V14.00,2013-04-05 04:45:00,
2013-04-04 23:50:00,40.5,28.1,30.11,SSW,202,3.0,4.0,61,0.00,,,0.00,VWS V14.00,2013-04-05 04:50:00,
2013-04-04 23:55:00,40.3,28.7,30.11,SSW,202,2.0,4.0,63,0.00,,,0.00,VWS V14.00,2013-04-05 04:55:00,